Terminal Aerodrome Forecast
Issued by NWS

Home | Current Version | Previous Version | Text Only | Print | Product List | Glossary On
Versions: 1 2 3 4 5 6 7 8 9 10 11 12 13 14 15 16 17 18 19 20 21 22 23 24 25 26 27 28 29 30 31 32 33 34 35 36 37 38 39 40 41 42 43 44 45 46 47 48 49 50
000
FTUS44 KHGX 191730
TAFUTS
TAF
KUTS 191730Z 1918/2018 VRB04KT P6SM VCSH BKN035
     FM192100 15005KT P6SM BKN040
     FM200200 17007KT P6SM SCT050 BKN100
     FM200700 18007KT P6SM FEW008 BKN015
     FM201000 15003KT 4SM BR OVC007
     FM201500 18006KT P6SM VCSH BKN015=

USA.gov is the U.S. government's official web portal to all federal, state and local government web resources and services.